Location: Asheville, NC
(35.6000°N, 82.5500°W)
Time: 00:18:19
(UTC-05:00)

OTV 5 (USA 277) - Pass Details

Date: 16 October 2017
Orbit: 404 x 417 km, 43.0° (Epoch: 07 September)

Event Time Altitude Azimuth Distance (km) Brightness Sun altitude
Rises 21:04:45 0° 299° (WNW) 2,352 ? -27.5°
Reaches altitude 10° 21:07:02 10° 310° (NW) 1,488 ? -27.9°
Enters shadow 21:07:46 15° 317° (NW) 1,234 ? -28.1°
